Location: Tamazert
(32.6352°N, 5.2072°W)
Time: 14:40:32
(UTC+00:00)

Vanguard 2 Rocket - All Passes

Search period start: 03 October 2022 00:00
Search period end: 13 October 2022 00:00
Orbit: 553 x 3323 km, 32.9° (Epoch: 02 October)

Date Brightness Start Highest point End Pass type
(mag) Time Alt. Az. Time Alt. Az. Time Alt. Az.
03 Oct - 02:00:50 10° W 02:10:57 90° N 02:16:36 10° E night (unlit)
03 Oct - 04:18:00 10° W 04:23:56 40° SSW 04:28:00 10° SE visible
03 Oct - 18:12:24 10° S 18:22:00 15° SE 18:30:36 10° ESE visible
03 Oct - 20:21:46 10° SSW 20:38:56 41° SSE 20:50:46 10° E visible
03 Oct - 22:38:36 10° WSW 22:55:17 72° SSE 23:04:42 10° E visible
04 Oct - 00:58:04 10° W 01:10:29 88° N 01:17:12 10° E night (unlit)
04 Oct - 03:16:16 10° W 03:24:14 62° SSW 03:29:02 10° ESE visible
04 Oct - 05:34:19 10° WSW 05:36:05 12° SW 05:37:42 10° SSW visible
04 Oct - 19:20:36 10° SSW 19:36:56 33° SE 19:49:32 10° E visible
04 Oct - 21:35:41 10° SW 21:53:46 63° SSE 22:04:44 10° E visible
04 Oct - 23:54:51 10° W 00:09:39 89° S 00:17:40 10° E visible
05 Oct - 02:14:03 10° W 02:24:11 80° SSW 02:29:50 10° ESE night (unlit)
05 Oct - 04:31:37 10° W 04:36:42 25° SW 04:40:24 10° SSE visible
05 Oct - 18:20:30 10° S 18:34:53 25° SE 18:47:14 10° E visible
05 Oct - 20:33:14 10° SW 20:51:53 54° SSE 21:04:24 10° E visible
05 Oct - 22:51:26 10° WSW 23:08:26 83° SSE 23:17:58 10° E visible
06 Oct - 01:11:18 10° W 01:23:46 89° S 01:30:29 10° E night (unlit)
06 Oct - 03:29:34 10° W 03:37:09 43° SSW 03:41:54 10° SE visible
06 Oct - 17:22:06 10° S 17:32:51 17° SE 17:42:59 10° ESE daylight
06 Oct - 19:31:28 10° SSW 19:49:47 44° SSE 20:03:33 10° E visible
06 Oct - 21:48:10 10° WSW 22:06:50 75° SSE 22:18:02 10° E visible
07 Oct - 00:08:03 10° W 00:22:55 88° N 00:30:57 10° E visible
07 Oct - 02:27:16 10° W 02:37:17 64° SSW 02:42:57 10° ESE night (unlit)
07 Oct - 04:46:04 10° WSW 04:49:13 14° SW 04:51:50 10° SSW visible
07 Oct - 18:30:33 10° SSW 18:47:35 35° SE 19:01:57 10° E visible
07 Oct - 20:45:17 10° SW 21:04:50 66° SSE 21:17:46 10° E visible
07 Oct - 23:04:31 10° W 23:21:39 90° SSE 23:31:14 10° E visible
08 Oct - 01:24:30 10° W 01:36:58 80° SSW 01:43:43 10° ESE night (unlit)
08 Oct - 03:43:06 10° W 03:49:49 28° SW 03:54:19 10° SSE visible
08 Oct - 17:30:43 10° S 17:45:29 26° SE 17:59:13 10° E daylight
08 Oct - 19:43:03 10° SW 20:02:36 57° SSE 20:17:06 10° E visible
08 Oct - 22:01:00 10° WSW 22:19:57 85° SSE 22:31:17 10° E visible
09 Oct - 00:21:17 10° W 00:36:11 89° S 00:44:14 10° E visible
09 Oct - 02:40:31 10° W 02:50:09 47° SSW 02:55:46 10° SE night (unlit)
09 Oct - 16:32:35 10° S 16:43:33 18° SE 16:54:32 10° E daylight
09 Oct - 18:41:35 10° SSW 19:00:14 47° SSE 19:15:51 10° E visible
09 Oct - 20:57:49 10° WSW 21:17:51 77° SSE 21:31:03 10° E visible
09 Oct - 23:17:43 10° W 23:34:55 88° N 23:44:31 10° E visible
10 Oct - 01:37:40 10° WNW 01:50:01 66° SSW 01:56:46 10° ESE night (unlit)
10 Oct - 03:57:17 10° W 04:02:13 17° SW 04:05:57 10° S visible
10 Oct - 17:41:02 10° SSW 17:57:57 37° SE 18:13:48 10° E daylight
10 Oct - 19:55:12 10° SW 20:15:26 69° SSE 20:30:25 10° ENE visible
10 Oct - 22:14:06 10° W 22:33:09 90° N 22:44:33 10° E visible
11 Oct - 00:34:28 10° W 00:49:22 80° SSW 00:57:26 10° ESE visible
11 Oct - 02:53:59 10° W 03:02:43 32° SW 03:08:12 10° SSE night (unlit)
11 Oct - 16:41:33 10° S 16:55:55 27° SE 17:10:35 10° E daylight
11 Oct - 18:53:19 10° SW 19:12:53 59° SSE 19:29:19 10° ENE visible
11 Oct - 21:10:42 10° WSW 21:30:57 86° SSE 21:44:16 10° E visible
11 Oct - 23:30:57 10° W 23:48:09 88° S 23:57:47 10° E visible
12 Oct - 01:50:53 10° WNW 02:02:49 50° SSW 02:09:36 10° SE night (unlit)
12 Oct - 15:43:47 10° SSE 15:54:12 18° SE 16:05:20 10° E daylight
12 Oct - 17:52:15 10° SSW 18:10:24 48° SE 18:27:37 10° E visible
12 Oct - 20:07:48 10° WSW 20:28:23 79° SSE 20:43:39 10° E visible
12 Oct - 22:27:18 10° W 22:46:24 89° N 22:57:49 10° E visible
